sat.trackr.live / text

‹ back to catalog

STARLINK-31191

NORAD 58800 · 2024-012P

PAYLOAD ACTIVE UNKNOWN

§ Identity

Operator
Country
US
Launch date
2024-01-15
Launch site
AFETR
Launch vehicle
Mass (kg)
RCS (m²)

Purposes: comms

External: N2YO · Heavens-Above · Gunter

§ Orbital elements

Epoch: 2026-09-20T01:07:33.430080Z

Period
94.27 min
Inclination
43.0002°
Eccentricity
0.0000656
Mean motion
15.27596695 rev/d
Perigee alt
482.5 km
Apogee alt
483.4 km
Semi-major
6,861.1 km
B*
1.0058e-4
RAAN
147.3376°
Arg perigee
271.3902°
Mean anomaly
88.6874°
Rev number
15,096

§ Raw data

STARLINK-311911 58800U 24012P   26263.04691470  .00002508  00000+0  10058-3 0  99912 58800  43.0002 147.3376 0000656 271.3902  88.6874 15.27596695150961

JSON: /api/v1/satellites/58800 · /tle

For live sub-satellite position, see the globe view (requires WebGL).

§ Visibility from observer

Set your observer location to see the next 7 days of passes ≥ 10°. The values pass through the URL so the page stays shareable.

No JS? Fill the form by hand. The geolocation button needs JavaScript.